Regional Weather Roundup
Issued by NWS Mt. Holly, NJ

Current Version | Previous Version | Text Only | Print | Product List | Glossary On
Versions: 1 2 3 4 5 6 7 8 9 10 11 12 13 14 15 16 17 18 19 20 21 22 23 24 25 26 27 28 29 30 31 32 33 34 35 36 37 38 39 40 41 42 43 44 45 46 47 48 49 50
000
ASUS41 KPHI 291711
RWRPHI

REGIONAL WEATHER ROUNDUP
NATIONAL WEATHER SERVICE MOUNT HOLLY NJ
100 PM EDT SUN MAR 29 2015

NOTE:  "FAIR" INDICATES FEW OR NO CLOUDS BELOW 12,000 FEET WITH NO
SIGNIFICANT WEATHER AND/OR OBSTRUCTIONS TO VISIBILITY.

 * = STATION DOES NOT REPORT PRECIPITATION (E.G. RAIN, SNOW, ETC.)
        OR FOG.

NJZ015>026-291800-
SOUTHERN NEW JERSEY

CITY           SKY/WX    TMP DP  RH WIND       PRES   REMARKS
POMONA         SUNNY     41   6  23 NW9       30.29F
RIO GRANDE*    SUNNY    N/A N/A N/A NW12G23   30.32F
MILLVILLE      SUNNY     39   8  27 N9G21     30.31F WCI  33
WRIGHTSTOWN    SUNNY     38   6  25 VRB7G16   30.27F WCI  33
MOUNT HOLLY    SUNNY     37   6  27 W5        30.30F WCI  33
TRENTON        SUNNY     38   7  27 N5        30.28F WCI  34

$$
NJZ001>014-291800-
NORTHERN NEW JERSEY

CITY           SKY/WX    TMP DP  RH WIND       PRES   REMARKS
SUSSEX         SUNNY     38   9  30 N10       30.25F WCI  31
ANDOVER*         N/A     38   6  26 VRB6      30.25F WCI  33
MORRISTOWN     SUNNY     37   3  23 N6G14     30.27F WCI  33
NEWARK         SUNNY     41   1  18 NW13G18   30.27F
TETERBORO      SUNNY     39   8  27 W6        30.25F WCI  35
CALDWELL       SUNNY     38   1  21 VRB5      30.26F WCI  34
SOMERVILLE     SUNNY     40   3  21 NW8       30.25F WCI  34
ALLAIRE*       SUNNY     39   7  26 N13       30.26F WCI  32
TOMS RIVER*    SUNNY     37   3  23 N9        30.28F WCI  31

$$
PAZ043-044-047-054-055-060>062-066>071-291800-
EASTERN PENNSYLVANIA

CITY           SKY/WX    TMP DP  RH WIND       PRES   REMARKS
PHILADELPHIA   SUNNY     40   6  24 N14       30.32F WCI  32
NORTH PHILA    SUNNY     40   7  25 W8        30.32F WCI  34
BLUE BELL      SUNNY     37  10  32 N5        30.29F WCI  34
DOYLESTOWN     SUNNY     37  11  34 VRB7      30.27F WCI  32
QUAKERTOWN*    SUNNY     36   9  32 NW9       30.29F WCI  29
POTTSTOWN      SUNNY     37  11  34 NW8       30.31F WCI  31
LANCASTER      SUNNY     36   9  32 VRB6      30.30F WCI  31
COATESVILLE    SUNNY     36   9  32 NW9G18    30.30F WCI  29
READING        SUNNY     38   6  26 W9        30.29F WCI  31
ALLENTOWN      LGT RAIN  39   8  27 W6        30.28F WCI  35
MOUNT POCONO   SUNNY     32   6  33 N9        30.18F WCI  24
HAZLETON       SUNNY     32   9  37 CALM      30.24F
WILKES BARRE   SUNNY     36   6  28 VRB5      30.24F WCI  32

$$
DEZALL-MDZ008-012-015-019-020-291800-
DELAWARE AND EASTERN MARYLAND

CITY           SKY/WX    TMP DP  RH WIND       PRES   REMARKS
WILMINGTON     SUNNY     39   5  24 N9        30.33F WCI  33
DOVER          SUNNY     39   9  28 N14G22    30.33F WCI  31
GEORGETOWN     SUNNY     39   7  26 NW8       30.33F WCI  33
EASTON         SUNNY     39  12  33 N13G24    30.39F WCI  32
PATUXENT       SUNNY     38   6  26 NW12G22   30.37F WCI  30
OCEAN CITY     SUNNY     40  10  29 N17G23    30.33F WCI  31
WALLOPS ISLAND SUNNY     40  12  32 NW12G21   30.35S WCI  33
CAMBRIDGE      SUNNY     37  14  38 NW10G17   30.36F WCI  30
SALISBURY      SUNNY     39  12  33 NW15G22   30.34F WCI  31

$$
PAZ001-021-NYZ056-072-MDZ011-DCZ001-291800-
OTHER NEARBY LOCATIONS

CITY           SKY/WX    TMP DP  RH WIND       PRES   REMARKS
HARRISBURG     MOSUNNY   38   7  27 W9        30.32F WCI  31
STATE COLLEGE  SUNNY     36   5  27 SW8       30.26F WCI  29
WILLIAMSPORT   SUNNY     37   7  28 W8        30.29F WCI  31
BINGHAMTON     SUNNY     30  11  45 W7        30.21S WCI  23
NEW YORK CITY  SUNNY     39   0  19 NW9G18    30.28F WCI  33
BALTIMORE      SUNNY     40   6  24 N6        30.34F
WASHINGTON DC  SUNNY     41   9  26 VRB3      30.38F

$$


USA.gov is the U.S. government's official web portal to all federal, state and local government web resources and services.